Tracking 18624 objects as of 30-April-2017
HD Live streaming from Space Station
objects crossing your sky now

AAU CUBESAT

Track AAU CUBESAT now!
10-day predictions
AAU CUBESAT is classified as:


NORAD ID: 27846
Int'l Code: 2003-031G
Perigee: 817.9 km
Apogee: 832.9 km
Inclination: 98.7 °
Period: 101.3 minutes
Semi major axis: 7196 km
RCS: 0.009 m2 (small)
Launch date: June 30, 2003
Source: Denmark (DEN)
Launch site: PLESETSK MISSILE AND SPACE COMPLEX (PKMTR)
Uplink (MHz):
Downlink (MHz): 437.450
Beacon (MHz): 437.450
Mode: 9600bps GMSK
Call sign:
Status: Inactive

Your satellite tracking list
Your tracking list is empty





NASA's NSSDC Master Catalog

Two Line Element Set (TLE):
1 27846U 03031G   17119.70007010 +.00000040 +00000-0 +37794-4 0  9996
2 27846 098.6836 128.2424 0010446 100.6629 259.5726 14.22101753717424
Source of the keplerian elements: AFSPC